ARIANE 5 R/B, 45248

Orbit data source: Space-Track

ARIANE 5 R/B, 45248 is space debris in HEO originally from a launch on Tue, 18 Feb 2020 UTC launched from the French Guiana (FRGUI). Debris objects in space refer to the collection of defunct objects orbiting the Earth. Examples of debris include non-operational satellites, rocket bodies, and fragments generated from explosions, collisions, or faulty payload assembly.

Loading next visibility...
Identifier
45248, 2020-013D
Orbit
HEO
Country
Flag of FRFR
Related business
Manufacturer
ArianeGroup
Mission
Spacecraft
Bus & Motor
ESC-A, Unknown motor
Mass
~5,000 kg wet, ~5,000 kg dry
Launch date (UTC)
2020-02-18 (6 years ago)
Launch vehicle
Unknown
Launch site
French Guiana (FRGUI)
Object type
Payload
Rocket body
Debris
Shape & HBR
Cyl + 1 Nozzle, 3.5 m
Radar Cross Section
41.627 m², Large (>1 m²)

Expand to show TLE details & history
Last TLE update: 22 hours ago

TLE from 22 hours ago
0 ARIANE 5 R/B
1 45248U 20013D   25259.84176544  .00002714  00000-0  86714-3 0  9994
2 45248   5.1534 152.6519 7164157 112.4817 333.7150  2.42199361 47850
Epoch: 2025-09-16T20:12Z
TLE epoch observation values (Epoch: 2025-09-16T20:12:08.534Z)
Latitude
0.00004°
Longitude
-146.49153°
Altitude
9,376.054 km
Speed
5.795 km/s
True Right ascension
10h 10m 16s
True Declination
0° 00' 00"
Sunlit
Object was in daylight at epoch
Visualization orbit readout
Latitude
Unknown
Longitude
Unknown
Altitude
Unknown
Speed
Unknown
Apparent Right ascension
Unknown
Apparent Declination
Unknown
Sunlit
N/A
Visualization observer readout
Local Sidereal Time
10:46:14
Azimuth
Unknown
Elevation
Unknown
Doppler factor
Unknown
Orbital elements
Apogee altitude
33,832.784 km
Perigee altitude
265.467 km
Semi-major axis
23,427.263 km
Eccentricity
0.71642
Inclination
5.1534°
RAAN
152.6519°
Arg. of periapsis
112.4817°
True anomaly
247.33001°
Mean anomaly
333.715°
Eccentric anomaly
297.20981°
Mean motion
0.60529 °/min
Orbital period
594.76 mins
BSTAR
0.00086714
Loading maneuver chart data...
Computing Atmospheric mass density...
Loading historical data...
Loading historical data...
Loading historical data...
Loading historical data...
Loading historical data...
Loading historical data...
Loading historical data...
Other satellites on launch #13 in the year 2020 (2020-02-18 UTC)

Documentation

Showing up to 5 results
|